Location: Kellogg
(38.0159°N, 90.0546°W)
Time: 16:16:47
(UTC+00:00)

Courier 1B - Pass Details

Date: 09 September 2024
Orbit: 962 x 1208 km, 28.3° (Epoch: 07 October)

Event Time Altitude Azimuth Distance (km) Brightness Sun altitude
Rises 04:27:53 0° 261° (W) 4,075 11.0 -42.1°
Enters shadow 04:30:14 - 251° (WSW) 3,503 10.5 -42.3°
Reaches altitude 10° 04:32:27 10° 238° (WSW) 3,072 - -42.5°
Maximum altitude 04:36:00 14° 209° (SSW) 2,747 - -42.9°
Drops below altitude 10° 04:39:29 10° 181° (S) 2,990 - -43.2°
Sets 04:43:49 0° 157° (SSE) 3,889 - -43.6°
